| time (UTC) | temp C | wind direction | speed KPH | gust KPH | rain 1hr cm | rain 24hr cm | rain mn cm | humidity % | barometer mb |
| 20260507064521 | 12 | 151 | 3.2 | 8.0 | 0.00 | 1.70 | 0.00 | 85 | 1013.2 |
| 20260507063519 | 11 | 128 | 3.2 | 4.8 | 0.00 | 1.88 | 0.00 | 87 | 1013.1 |
| 20260507062516 | 12 | 106 | 3.2 | 8.0 | 0.00 | 1.98 | 0.00 | 87 | 1013.1 |
| 20260507061534 | 11 | 147 | 3.2 | 6.4 | 0.00 | 2.26 | 0.00 | 88 | 1013.1 |
| 20260507060532 | 11 | 78 | 3.2 | 6.4 | 0.00 | 2.39 | 0.00 | 88 | 1012.9 |
| 20260507055529 | 11 | 124 | 3.2 | 4.8 | 0.00 | 2.39 | 0.00 | 88 | 1012.9 |
| 20260507054527 | 10 | 107 | 1.6 | 4.8 | 0.00 | 2.41 | 0.00 | 89 | 1012.9 |
| 20260507053525 | 10 | 91 | 1.6 | 4.8 | 0.00 | 2.41 | 0.00 | 91 | 1012.8 |
| 20260507052522 | 10 | 119 | 1.6 | 4.8 | 0.00 | 2.49 | 0.00 | 93 | 1012.6 |
| 20260507051519 | 9 | 95 | 1.6 | 6.4 | 0.00 | 2.59 | 0.00 | 96 | 1012.6 |
| 20260507050517 | 8 | 113 | 1.6 | 3.2 | 0.00 | 2.69 | 0.00 | 97 | 1012.5 |
| 20260507045535 | 8 | 123 | 3.2 | 6.4 | 0.00 | 2.72 | 0.00 | 97 | 1012.4 |
| 20260507044532 | 8 | 77 | 1.6 | 3.2 | 0.00 | 2.82 | 0.00 | 97 | 1012.4 |
| 20260507043530 | 8 | 69 | 0.0 | 3.2 | 0.00 | 2.87 | 0.00 | 97 | 1012.3 |
| 20260507042527 | 8 | 0.0 | 1.6 | 0.00 | 2.95 | 0.00 | 97 | 1012.3 | |
| 20260507041525 | 7 | 320 | 0.0 | 3.2 | 0.00 | 2.97 | 0.00 | 97 | 1012.3 |
| 20260507040523 | 7 | 336 | 1.6 | 3.2 | 0.00 | 3.02 | 0.00 | 97 | 1012.1 |
| 20260507035520 | 7 | 267 | 1.6 | 4.8 | 0.00 | 3.15 | 0.00 | 97 | 1012.1 |
| 20260507034518 | 8 | 311 | 0.0 | 3.2 | 0.00 | 3.20 | 0.00 | 97 | 1012.2 |
| 20260507033515 | 7 | 302 | 1.6 | 4.8 | 0.00 | 3.20 | 0.00 | 97 | 1012.2 |
| 20260507032533 | 8 | 275 | 0.0 | 3.2 | 0.00 | 3.20 | 0.00 | 97 | 1012.2 |
| 20260507031531 | 8 | 354 | 1.6 | 3.2 | 0.00 | 3.25 | 0.00 | 97 | 1012.1 |
| 20260507030528 | 8 | 299 | 0.0 | 3.2 | 0.00 | 3.28 | 0.00 | 97 | 1012.2 |
| 20260507025526 | 8 | 1 | 1.6 | 4.8 | 0.00 | 3.30 | 0.00 | 97 | 1012.2 |
| 20260507024524 | 8 | 259 | 1.6 | 3.2 | 0.00 | 3.33 | 0.00 | 97 | 1012.2 |
| 20260507023521 | 8 | 71 | 1.6 | 3.2 | 0.00 | 3.38 | 0.00 | 98 | 1012.2 |
| 20260507022518 | 8 | 106 | 0.0 | 3.2 | 0.00 | 3.43 | 0.00 | 98 | 1012.3 |
| 20260507021516 | 8 | 31 | 1.6 | 3.2 | 0.00 | 3.43 | 0.00 | 98 | 1012.3 |
| 20260507020534 | 8 | 314 | 1.6 | 3.2 | 0.00 | 3.61 | 0.00 | 98 | 1012.3 |
| 20260507015531 | 8 | 123 | 0.0 | 3.2 | 0.00 | 3.73 | 0.00 | 98 | 1012.2 |
| 20260507014529 | 9 | 343 | 1.6 | 3.2 | 0.00 | 3.73 | 0.00 | 98 | 1012.2 |
| 20260507013526 | 9 | 74 | 1.6 | 3.2 | 0.00 | 3.73 | 0.00 | 98 | 1012.3 |
| 20260507012524 | 9 | 8 | 3.2 | 4.8 | 0.00 | 3.73 | 0.00 | 98 | 1012.2 |
| 20260507011522 | 10 | 31 | 1.6 | 3.2 | 0.00 | 3.73 | 0.00 | 98 | 1012.2 |
| 20260507010519 | 10 | 78 | 1.6 | 3.2 | 0.00 | 3.73 | 0.00 | 98 | 1012.3 |
| 20260507005517 | 10 | 346 | 0.0 | 3.2 | 0.00 | 3.81 | 0.00 | 97 | 1012.3 |
| 20260507004535 | 9 | 314 | 0.0 | 1.6 | 0.00 | 3.96 | 0.00 | 97 | 1012.2 |
| 20260507003532 | 10 | 0.0 | 3.2 | 0.00 | 4.19 | 0.00 | 97 | 1012.2 | |
| 20260507002529 | 10 | 0.0 | 1.6 | 0.00 | 4.32 | 0.00 | 97 | 1012.1 | |
| 20260507001527 | 10 | 247 | 0.0 | 3.2 | 0.00 | 4.42 | 0.00 | 97 | 1012.2 |
| 20260507000525 | 10 | 35 | 0.0 | 3.2 | 0.00 | 4.52 | 0.00 | 97 | 1012.3 |
| 20260506235522 | 10 | 320 | 0.0 | 3.2 | 0.00 | 4.57 | 0.00 | 96 | 1012.2 |
| 20260506234520 | 10 | 57 | 1.6 | 3.2 | 0.00 | 4.57 | 0.00 | 96 | 1012.3 |
| 20260506233518 | 10 | 257 | 0.0 | 3.2 | 0.00 | 4.57 | 0.00 | 96 | 1012.3 |
| 20260506232515 | 10 | 0.0 | 1.6 | 0.00 | 4.60 | 0.00 | 96 | 1012.3 | |
| 20260506231533 | 10 | 303 | 0.0 | 3.2 | 0.00 | 4.90 | 0.00 | 96 | 1012.3 |
| 20260506230531 | 10 | 329 | 1.6 | 4.8 | 0.00 | 5.33 | 0.00 | 96 | 1012.3 |
| 20260506225528 | 10 | 57 | 1.6 | 3.2 | 0.00 | 5.51 | 0.00 | 96 | 1012.4 |
| 20260506224526 | 10 | 42 | 1.6 | 3.2 | 0.00 | 5.94 | 0.00 | 96 | 1012.4 |
| 20260506223523 | 10 | 320 | 0.0 | 3.2 | 0.00 | 5.97 | 0.00 | 96 | 1012.4 |
| 20260506222521 | 10 | 37 | 0.0 | 3.2 | 0.00 | 5.97 | 0.00 | 95 | 1012.3 |
| 20260506221518 | 11 | 318 | 0.0 | 3.2 | 0.00 | 5.97 | 0.00 | 95 | 1012.4 |
| 20260506220516 | 11 | 0.0 | 3.2 | 0.00 | 5.97 | 0.00 | 95 | 1012.4 | |
| 20260506215534 | 11 | 11 | 0.0 | 3.2 | 0.00 | 5.97 | 5.97 | 95 | 1012.4 |
| 20260506214531 | 11 | 322 | 1.6 | 3.2 | 0.00 | 5.99 | 5.97 | 95 | 1012.2 |
| 20260506213529 | 10 | 301 | 0.0 | 3.2 | 0.00 | 6.02 | 5.97 | 94 | 1012.3 |
| 20260506212526 | 11 | 301 | 0.0 | 3.2 | 0.00 | 6.12 | 5.97 | 95 | 1012.2 |
| 20260506211524 | 11 | 72 | 0.0 | 1.6 | 0.00 | 6.25 | 5.97 | 94 | 1012.2 |
| 20260506210522 | 11 | 56 | 3.2 | 4.8 | 0.00 | 6.40 | 5.97 | 94 | 1012.2 |
| 20260506205519 | 11 | 283 | 1.6 | 3.2 | 0.00 | 6.45 | 5.97 | 95 | 1012.0 |
| 20260506204517 | 11 | 256 | 0.0 | 3.2 | 0.00 | 6.53 | 5.97 | 96 | 1012.1 |
| 20260506203534 | 11 | 250 | 1.6 | 4.8 | 0.00 | 6.53 | 5.97 | 96 | 1012.0 |
| 20260506202532 | 11 | 254 | 1.6 | 4.8 | 0.00 | 6.53 | 5.97 | 96 | 1012.0 |
| 20260506201530 | 11 | 260 | 1.6 | 4.8 | 0.00 | 6.53 | 5.97 | 96 | 1011.9 |
| 20260506200528 | 11 | 291 | 0.0 | 3.2 | 0.00 | 6.55 | 5.97 | 96 | 1011.8 |
| 20260506195525 | 11 | 240 | 0.0 | 3.2 | 0.00 | 6.55 | 5.97 | 96 | 1011.7 |
| 20260506194522 | 12 | 163 | 1.6 | 4.8 | 0.00 | 6.55 | 5.97 | 96 | 1011.6 |
| 20260506193520 | 12 | 125 | 1.6 | 8.0 | 0.00 | 6.60 | 5.97 | 96 | 1011.5 |
| 20260506192518 | 11 | 64 | 0.0 | 3.2 | 0.00 | 6.60 | 5.97 | 94 | 1011.4 |
| 20260506191515 | 11 | 271 | 1.6 | 3.2 | 0.00 | 6.60 | 5.97 | 93 | 1011.2 |
| 20260506190533 | 11 | 287 | 0.0 | 3.2 | 0.00 | 6.65 | 5.97 | 93 | 1011.0 |
| 20260506185531 | 12 | 292 | 0.0 | 3.2 | 0.00 | 6.68 | 5.97 | 92 | 1010.8 |
| 20260506184529 | 12 | 0.0 | 1.6 | 0.00 | 6.68 | 5.97 | 92 | 1010.7 | |
| 20260506183526 | 12 | 296 | 0.0 | 3.2 | 0.00 | 6.68 | 5.97 | 91 | 1010.6 |
| 20260506182523 | 12 | 16 | 1.6 | 4.8 | 0.00 | 6.68 | 5.97 | 90 | 1010.6 |
| 20260506181521 | 12 | 241 | 1.6 | 3.2 | 0.00 | 6.68 | 5.97 | 90 | 1010.5 |
| 20260506180518 | 13 | 62 | 1.6 | 4.8 | 0.00 | 6.68 | 5.97 | 91 | 1010.5 |
| 20260506175516 | 13 | 70 | 1.6 | 4.8 | 0.00 | 6.68 | 5.97 | 92 | 1010.3 |
| 20260506174534 | 13 | 86 | 1.6 | 4.8 | 0.00 | 6.68 | 5.97 | 91 | 1010.2 |
| 20260506173531 | 13 | 53 | 4.8 | 11.3 | 0.00 | 6.68 | 5.97 | 91 | 1010.3 |
| 20260506172529 | 13 | 86 | 4.8 | 8.0 | 0.00 | 6.68 | 5.97 | 91 | 1010.4 |
| 20260506171526 | 13 | 102 | 3.2 | 6.4 | 0.00 | 6.68 | 5.97 | 90 | 1010.4 |
| 20260506170524 | 13 | 103 | 4.8 | 8.0 | 0.00 | 6.68 | 5.97 | 89 | 1010.4 |
| 20260506165522 | 13 | 120 | 3.2 | 6.4 | 0.00 | 6.68 | 5.97 | 88 | 1010.2 |
| 20260506164519 | 14 | 95 | 1.6 | 6.4 | 0.00 | 6.68 | 5.97 | 86 | 1010.3 |
| 20260506163517 | 14 | 55 | 1.6 | 6.4 | 0.00 | 6.68 | 5.97 | 84 | 1010.3 |
| 20260506162535 | 14 | 150 | 0.0 | 3.2 | 0.00 | 6.68 | 5.97 | 85 | 1010.4 |
| 20260506161532 | 14 | 101 | 1.6 | 9.7 | 0.00 | 6.68 | 5.97 | 85 | 1010.4 |
| 20260506160530 | 14 | 176 | 1.6 | 9.7 | 0.00 | 6.68 | 5.97 | 84 | 1010.4 |
| 20260506155527 | 15 | 187 | 1.6 | 9.7 | 0.00 | 6.68 | 5.97 | 82 | 1010.3 |
| 20260506154525 | 15 | 162 | 3.2 | 6.4 | 0.00 | 6.68 | 5.97 | 80 | 1010.5 |
| 20260506153523 | 15 | 96 | 3.2 | 6.4 | 0.00 | 6.68 | 5.97 | 79 | 1010.4 |
| 20260506152520 | 16 | 56 | 3.2 | 9.7 | 0.00 | 6.68 | 5.97 | 78 | 1010.2 |
| 20260506151518 | 16 | 77 | 4.8 | 9.7 | 0.00 | 6.68 | 5.97 | 79 | 1010.3 |
| 20260506150515 | 16 | 266 | 4.8 | 11.3 | 0.00 | 6.68 | 5.97 | 78 | 1010.3 |
| 20260506145533 | 15 | 101 | 1.6 | 4.8 | 0.00 | 6.68 | 5.97 | 82 | 1010.3 |
| 20260506144531 | 15 | 289 | 4.8 | 14.5 | 0.00 | 6.68 | 5.97 | 81 | 1010.3 |
| 20260506143528 | 16 | 128 | 1.6 | 9.7 | 0.00 | 6.68 | 5.97 | 85 | 1010.2 |
| 20260506142526 | 16 | 96 | 3.2 | 6.4 | 0.00 | 6.68 | 5.97 | 85 | 1010.2 |
| 20260506141523 | 15 | 93 | 3.2 | 9.7 | 0.00 | 6.68 | 5.97 | 87 | 1010.2 |
| 20260506140521 | 15 | 95 | 3.2 | 8.0 | 0.00 | 6.68 | 5.97 | 88 | 1010.3 |
| 20260506135519 | 15 | 83 | 4.8 | 9.7 | 0.00 | 6.68 | 5.97 | 91 | 1010.2 |
| 20260506134516 | 14 | 63 | 4.8 | 11.3 | 0.00 | 6.68 | 5.97 | 92 | 1010.4 |
| 20260506133534 | 14 | 85 | 6.4 | 16.1 | 0.00 | 6.68 | 5.97 | 92 | 1010.4 |
| 20260506132532 | 14 | 90 | 6.4 | 16.1 | 0.00 | 6.68 | 5.97 | 92 | 1010.4 |
| 20260506131529 | 14 | 75 | 4.8 | 9.7 | 0.00 | 6.68 | 5.97 | 93 | 1010.3 |
| 20260506130527 | 14 | 78 | 6.4 | 9.7 | 0.00 | 6.68 | 5.97 | 94 | 1010.3 |
| 20260506125524 | 14 | 80 | 4.8 | 9.7 | 0.00 | 6.68 | 5.97 | 95 | 1010.2 |
| 20260506124522 | 14 | 83 | 4.8 | 17.7 | 0.00 | 6.68 | 5.97 | 96 | 1010.3 |
| 20260506123519 | 13 | 80 | 6.4 | 17.7 | 0.13 | 6.68 | 5.97 | 96 | 1010.1 |
| 20260506122517 | 13 | 80 | 6.4 | 16.1 | 0.23 | 6.68 | 5.97 | 98 | 1010.2 |
| 20260506121535 | 14 | 87 | 3.2 | 11.3 | 0.28 | 6.68 | 5.97 | 98 | 1010.3 |
| 20260506120532 | 13 | 82 | 3.2 | 12.9 | 0.41 | 6.73 | 5.97 | 97 | 1010.1 |
| 20260506115530 | 13 | 96 | 1.6 | 6.4 | 0.41 | 6.91 | 5.97 | 96 | 1009.9 |
| 20260506114528 | 12 | 62 | 6.4 | 17.7 | 0.41 | 6.91 | 5.97 | 96 | 1010.0 |
| 20260506113525 | 13 | 88 | 6.4 | 14.5 | 0.28 | 6.81 | 5.84 | 98 | 1010.1 |
| 20260506112523 | 13 | 81 | 8.0 | 16.1 | 0.28 | 6.68 | 5.71 | 99 | 1009.9 |
| 20260506111520 | 13 | 101 | 8.0 | 19.3 | 0.69 | 6.65 | 5.69 | 99 | 1009.7 |
| 20260506110518 | 13 | 86 | 6.4 | 22.5 | 0.76 | 6.53 | 5.56 | 99 | 1009.8 |
| 20260506105515 | 13 | 94 | 6.4 | 17.7 | 0.76 | 6.50 | 5.56 | 99 | 1009.8 |
| 20260506104533 | 13 | 177 | 6.4 | 20.9 | 0.76 | 6.53 | 5.56 | 99 | 1009.9 |
| 20260506103531 | 13 | 83 | 6.4 | 17.7 | 0.76 | 6.58 | 5.56 | 99 | 1009.8 |
| 20260506102528 | 12 | 94 | 6.4 | 12.9 | 0.66 | 6.48 | 5.46 | 99 | 1010.0 |
| 20260506101526 | 13 | 178 | 6.4 | 19.3 | 0.23 | 6.02 | 5.00 | 99 | 1010.0 |
| 20260506100524 | 13 | 170 | 6.4 | 17.7 | 0.05 | 5.84 | 4.80 | 99 | 1009.9 |
| 20260506095521 | 13 | 139 | 8.0 | 19.3 | 0.05 | 5.87 | 4.80 | 99 | 1009.8 |
| 20260506094519 | 13 | 147 | 8.0 | 19.3 | 0.03 | 5.94 | 4.80 | 99 | 1009.8 |
| 20260506093516 | 13 | 172 | 6.4 | 24.1 | 0.05 | 5.97 | 4.80 | 99 | 1009.7 |
| 20260506092534 | 13 | 140 | 6.4 | 17.7 | 0.05 | 5.97 | 4.80 | 99 | 1009.6 |
| 20260506091532 | 13 | 240 | 4.8 | 16.1 | 0.03 | 6.10 | 4.75 | 99 | 1009.7 |
| 20260506090529 | 13 | 168 | 6.4 | 16.1 | 0.03 | 6.43 | 4.75 | 99 | 1009.5 |
| 20260506085527 | 13 | 101 | 4.8 | 22.5 | 0.03 | 6.78 | 4.75 | 99 | 1009.4 |
| 20260506084525 | 12 | 145 | 6.4 | 19.3 | 0.03 | 6.86 | 4.75 | 99 | 1009.4 |
| 20260506083522 | 12 | 239 | 4.8 | 16.1 | 0.00 | 7.21 | 4.75 | 99 | 1009.8 |
| 20260506082520 | 12 | 149 | 6.4 | 14.5 | 0.03 | 7.39 | 4.75 | 99 | 1009.7 |
| 20260506081517 | 12 | 152 | 6.4 | 17.7 | 0.05 | 7.44 | 4.75 | 99 | 1009.8 |
| 20260506080535 | 12 | 179 | 6.4 | 16.1 | 0.05 | 7.62 | 4.72 | 99 | 1009.7 |
| 20260506073528 | 12 | 123 | 1.6 | 8.0 | 0.64 | 7.90 | 4.72 | 99 | 1009.9 |
| 20260506072525 | 12 | 185 | 6.4 | 12.9 | 0.71 | 8.05 | 4.72 | 99 | 1009.9 |
| 20260506071523 | 12 | 200 | 1.6 | 6.4 | 0.99 | 8.71 | 4.70 | 99 | 1009.8 |
| 20260506070520 | 12 | 173 | 6.4 | 16.1 | 1.12 | 9.04 | 4.70 | 99 | 1009.7 |